KM6AHX-12 Weather Reports


Display with metric or nautical units.
time (UTC)temp
F
wind
direction
speed
MPH
gust
MPH
rain 1hr
in
rain 24hr
in
rain mn
in
humidity
%
barometer
mb
20220126044759 47 88 2.0 2.0 0.00 0.00 0.00
20220126043851 48 54 2.0 0.0 0.00 0.00 0.00
20220126043548 47 85 1.0 0.0 0.00 0.00 0.00
20220126042943 48 61 0.0 3.0 0.00 0.00 0.00
20220126042639 48 94 2.0 3.0 0.00 0.00 0.00
20220126042337 48 52 0.0 1.0 0.00 0.00 0.00
20220126040823 48 115 2.0 3.0 0.00 0.00 0.00
20220126040520 48 77 3.0 3.0 0.00 0.00 0.00
20220126034400 49 324 0.0 0.0 0.00 0.00 0.00
20220126033754 49 324 0.0 0.0 0.00 0.00 0.00
20220126033451 49 324 0.0 0.0 0.00 0.00 0.00
20220126033149 50 324 0.0 0.0 0.00 0.00 0.00
20220126032846 50 324 0.0 0.0 0.00 0.00 0.00
20220126031332 50 324 0.0 3.0 0.00 0.00 0.00
20220126030726 50 49 1.0 4.0 0.00 0.00 0.00
20220126025212 50 18 1.0 2.0 0.00 0.00 0.00
20220126024302 51 82 1.0 2.0 0.00 0.00 0.00
20220126024001 51 56 0.0 2.0 0.00 0.00 0.00
20220126023355 51 39 0.0 3.0 0.00 0.00 0.00
20220126022447 51 109 2.0 3.0 0.00 0.00 0.00
20220126021841 51 87 2.0 0.0 0.00 0.00 0.00
20220126021539 51 57 0.0 0.0 0.00 0.00 0.00
20220126020933 51 57 0.0 2.0 0.00 0.00 0.00
20220126020327 52 67 0.0 1.0 0.00 0.00 0.00
20220126015721 52 88 1.0 2.0 0.00 0.00 0.00
20220126015420 53 98 2.0 2.0 0.00 0.00 0.00
20220126015116 53 80 0.0 2.0 0.00 0.00 0.00
20220126014438 54 73 0.0 2.0 0.00 0.00 0.00
20220126014034 55 88 1.0 2.0 0.00 0.00 0.00
20220126013631 56 78 0.0 1.0 0.00 0.00 0.00
20220126013429 56 78 0.0 2.0 0.00 0.00 0.00
20220126013025 58 113 1.0 2.0 0.00 0.00 0.00
20220126012621 58 217 0.0 1.0 0.00 0.00 0.00
20220126012419 59 217 0.0 5.0 0.00 0.00 0.00
20220126011814 60 237 0.0 2.0 0.00 0.00 0.00
20220126011612 60 265 5.0 2.0 0.00 0.00 0.00
20220126011410 60 306 2.0 3.0 0.00 0.00 0.00
20220126011006 60 243 2.0 5.0 0.00 0.00 0.00
20220126010804 60 202 0.0 5.0 0.00 0.00 0.00
20220126010159 61 172 0.0 5.0 0.00 0.00 0.00
20220126005351 61 285 2.0 0.0 0.00 0.00 0.00
20220126005149 61 327 0.0 0.0 0.00 0.00 0.00
20220126004947 61 327 0.0 2.0 0.00 0.00 0.00
20220126004746 61 327 0.0 2.0 0.00 0.00 0.00
20220126004544 62 132 0.0 2.0 0.00 0.00 0.00
20220126003333 62 272 2.0 5.0 0.00 0.00 0.00
20220126003131 63 289 0.0 5.0 0.00 0.00 0.00
20220126002323 63 227 4.0 5.0 0.00 0.00 0.00
20220126000708 64 21 0.0 5.0 0.00 0.00 0.00
20220126000103 64 272 3.0 8.0 0.00 0.00 0.00
20220125235255 66 277 1.0 13.0 0.00 0.00 0.00
20220125234850 66 298 3.0 6.0 0.00 0.00 0.00
20220125233035 67 149 0.0 6.0 0.00 0.00 0.00
20220125232833 67 298 2.0 7.0 0.00 0.00 0.00
20220125232429 67 279 1.0 7.0 0.00 0.00 0.00
20220125232025 67 237 0.0 7.0 0.00 0.00 0.00
20220125231823 67 189 0.0 7.0 0.00 0.00 0.00
20220125231621 67 191 1.0 7.0 0.00 0.00 0.00
20220125225159 67 268 5.0 8.0 0.00 0.00 0.00
20220125224755 67 284 2.0 10.0 0.00 0.00 0.00
20220125223342 67 306 2.0 8.0 0.00 0.00 0.00
20220125222333 67 205 4.0 9.0 0.00 0.00 0.00
20220125221120 67 232 6.0 8.0 0.00 0.00 0.00
20220125220918 68 237 3.0 6.0 0.00 0.00 0.00
20220125220516 67 209 1.0 6.0 0.00 0.00 0.00
20220125215306 67 140 4.0 8.0 0.00 0.00 0.00
20220125214255 67 206 0.0 5.0 0.00 0.00 0.00
20220125213852 67 258 0.0 8.0 0.00 0.00 0.00
20220125213648 67 260 0.0 8.0 0.00 0.00 0.00
20220125212438 67 254 0.0 5.0 0.00 0.00 0.00
20220125212034 67 196 4.0 5.0 0.00 0.00 0.00
20220125211025 67 296 3.0 8.0 0.00 0.00 0.00
20220125210620 67 22 2.0 7.0 0.00 0.00 0.00
20220125210419 66 322 3.0 8.0 0.00 0.00 0.00
20220125205814 66 300 6.0 8.0 0.00 0.00 0.00
20220125205410 66 358 2.0 7.0 0.00 0.00 0.00
20220125204400 66 262 2.0 7.0 0.00 0.00 0.00
20220125203554 66 227 3.0 9.0 0.00 0.00 0.00
20220125203150 65 326 3.0 8.0 0.00 0.00 0.00
20220125202140 65 278 4.0 10.0 0.00 0.00 0.00
20220125201130 65 230 4.0 8.0 0.00 0.00 0.00
20220125200121 65 309 4.0 9.0 0.00 0.00 0.00
20220125194911 64 277 4.0 7.0 0.00 0.00 0.00
20220125194707 64 282 1.0 7.0 0.00 0.00 0.00
20220125193457 63 255 4.0 9.0 0.00 0.00 0.00
20220125192852 63 236 2.0 7.0 0.00 0.00 0.00
20220125192448 63 278 0.0 6.0 0.00 0.00 0.00
20220125192247 63 253 2.0 6.0 0.00 0.00 0.00
20220125185420 63 198 0.0 8.0 0.00 0.00 0.00
20220125185217 63 250 0.0 8.0 0.00 0.00 0.00
20220125184815 63 180 5.0 4.0 0.00 0.00 0.00
20220125184208 63 262 2.0 5.0 0.00 0.00 0.00
20220125183805 63 305 2.0 4.0 0.00 0.00 0.00
20220125183603 63 292 4.0 4.0 0.00 0.00 0.00
20220125182756 62 208 0.0 4.0 0.00 0.00 0.00
20220125182553 62 208 1.0 4.0 0.00 0.00 0.00
20220125182352 62 278 0.0 4.0 0.00 0.00 0.00
20220125181342 61 291 1.0 4.0 0.00 0.00 0.00
20220125180334 61 195 0.0 3.0 0.00 0.00 0.00
20220125174719 61 237 0.0 2.0 0.00 0.00 0.00
20220125174516 61 237 0.0 2.0 0.00 0.00 0.00
20220125173708 60 253 2.0 3.0 0.00 0.00 0.00
20220125173305 61 130 0.0 3.0 0.00 0.00 0.00
20220125173104 61 175 1.0 3.0 0.00 0.00 0.00
20220125172902 61 172 2.0 3.0 0.00 0.00 0.00
20220125172255 60 279 2.0 0.0 0.00 0.00 0.00
20220125171852 59 120 0.0 0.0 0.00 0.00 0.00
20220125171449 58 120 0.0 0.0 0.00 0.00 0.00
20220125170237 56 120 0.0 0.0 0.00 0.00 0.00
20220125165429 54 120 0.0 0.0 0.00 0.00 0.00
20220125164824 54 120 0.0 0.0 0.00 0.00 0.00
20220125164420 53 120 0.0 0.0 0.00 0.00 0.00 81
20220125163814 52 120 0.0 0.0 0.00 0.00 0.00
20220125163613 52 120 0.0 0.0 0.00 0.00 0.00
20220125161754 49 102 2.0 0.0 0.00 0.00 0.00
20220125161554 49 182 0.0 0.0 0.00 0.00 0.00
20220125161150 49 182 0.0 0.0 0.00 0.00 0.00
20220125160948 49 182 0.0 0.0 0.00 0.00 0.00
20220125160545 49 182 0.0 0.0 0.00 0.00 0.00
20220125155333 48 182 0.0 5.0 0.00 0.00 0.00
20220125155132 48 21 0.0 5.0 0.00 0.00 0.00
20220125154324 44 81 2.0 4.0 0.00 0.00 0.00
20220125153517 44 40 0.0 0.0 0.00 0.00 0.00
20220125153314 44 40 0.0 0.0 0.00 0.00 0.00
20220125153112 43 40 0.0 0.0 0.00 0.00 0.00
20220125152709 43 40 0.0 1.0 0.00 0.00 0.00
20220125150043 43 53 0.0 0.0 0.00 0.00 0.00
20220125145035 43 98 1.0 2.0 0.00 0.00 0.00
20220125144428 43 37 0.0 0.0 0.00 0.00 0.00
20220125142001 44 84 1.0 3.0 0.00 0.00 0.00
20220125134933 44 56 0.0 0.0 0.00 0.00 0.00
20220125134326 44 56 0.0 0.0 0.00 0.00 0.00
20220125134025 44 56 0.0 0.0 0.00 0.00 0.00
20220125133116 45 56 0.0 0.0 0.00 0.00 0.00
20220125131601 45 56 0.0 0.0 0.00 0.00 0.00
20220125125140 45 56 0.0 1.0 0.00 0.00 0.00
20220125124534 45 60 0.0 0.0 0.00 0.00 0.00
20220125123928 45 60 0.0 0.0 0.00 0.00 0.00
20220125123626 45 60 0.0 0.0 0.00 0.00 0.00
20220125122415 45 82 0.0 1.0 0.00 0.00 0.00
20220125121203 45 80 1.0 0.0 0.00 0.00 0.00
20220125115044 45 85 0.0 2.0 0.00 0.00 0.00
20220125114741 45 85 0.0 2.0 0.00 0.00 0.00
20220125112621 45 95 0.0 0.0 0.00 0.00 0.00
20220125112015 45 95 0.0 0.0 0.00 0.00 0.00
20220125111712 45 95 0.0 0.0 0.00 0.00 0.00
20220125111410 45 95 0.0 0.0 0.00 0.00 0.00
20220125111107 45 95 0.0 0.0 0.00 0.00 0.00
20220125110159 45 95 0.0 0.0 0.00 0.00 0.00
20220125105553 45 95 0.0 0.0 0.00 0.00 0.00
20220125104645 45 95 0.0 0.0 0.00 0.00 0.00
20220125104342 45 95 0.0 0.0 0.00 0.00 0.00
20220125104039 45 95 0.0 0.0 0.00 0.00 0.00
20220125103433 45 95 0.0 0.0 0.00 0.00 0.00
20220125102828 45 95 0.0 0.0 0.00 0.00 0.00
20220125101918 45 95 0.0 0.0 0.00 0.00 0.00
20220125101011 45 95 0.0 0.0 0.00 0.00 0.00
20220125094547 45 95 0.0 0.0 0.00 0.00 0.00
20220125093336 46 95 0.0 2.0 0.00 0.00 0.00
20220125092730 46 78 2.0 0.0 0.00 0.00 0.00
20220125091821 46 98 1.0 0.0 0.00 0.00 0.00
20220125091520 47 35 0.0 0.0 0.00 0.00 0.00
20220125091217 47 35 0.0 0.0 0.00 0.00 0.00
20220125090307 47 35 0.0 0.0 0.00 0.00 0.00
20220125090005 47 35 0.0 0.0 0.00 0.00 0.00
20220125085359 47 35 0.0 0.0 0.00 0.00 0.00
20220125084148 47 59 0.0 0.0 0.00 0.00 0.00
20220125083845 47 59 0.0 0.0 0.00 0.00 0.00
20220125083542 46 59 0.0 0.0 0.00 0.00 0.00
20220125082936 46 59 0.0 0.0 0.00 0.00 0.00
20220125082332 46 56 0.0 0.0 0.00 0.00 0.00
20220125081424 47 56 0.0 0.0 0.00 0.00 0.00
20220125081121 47 56 0.0 0.0 0.00 0.00 0.00
20220125080818 47 56 0.0 0.0 0.00 0.00 0.00
20220125075910 48 56 0.0 1.0 0.00 0.00 0.00
20220125075305 48 56 0.0 2.0 0.00 0.00 0.00
20220125075001 48 88 1.0 0.0 0.00 0.00 0.00
20220125074355 48 73 0.0 0.0 0.00 0.00 0.00
20220125073447 49 73 0.0 0.0 0.00 0.00 0.00
20220125073144 50 73 0.0 0.0 0.00 0.00 0.00
20220125072237 51 73 0.0 5.0 0.00 0.00 0.00
20220125071328 50 1 3.0 5.0 0.00 0.00 0.00
20220125071023 49 8 2.0 5.0 0.00 0.00 0.00
20220125070720 47 46 2.0 3.0 0.00 0.00 0.00
20220125070419 47 46 0.0 3.0 0.00 0.00 0.00
20220125070116 47 66 0.0 3.0 0.00 0.00 0.00
20220125064905 46 85 1.0 0.0 0.00 0.00 0.00
20220125064602 47 68 0.0 0.0 0.00 0.00 0.00
20220125064300 47 68 0.0 0.0 0.00 0.00 0.00
20220125063957 47 68 0.0 0.0 0.00 0.00 0.00
20220125063350 47 68 0.0 0.0 0.00 0.00 0.00
20220125062746 47 68 0.0 0.0 0.00 0.00 0.00
20220125062138 47 68 0.0 0.0 0.00 0.00 0.00
20220125061232 48 102 0.0 3.0 0.00 0.00 0.00
20220125055716 49 85 0.0 1.0 0.00 0.00 0.00
20220125054506 51 88 0.0 1.0 0.00 0.00 0.00
20220125053901 51 88 0.0 2.0 0.00 0.00 0.00 95
20220125053255 52 149 1.0 2.0 0.00 0.00 0.00 96
20220125052951 51 71 2.0 3.0 0.00 0.00 0.00 96
20220125052649 51 40 0.0 3.0 0.00 0.00 0.00 96
20220125052346 52 112 0.0 4.0 0.00 0.00 0.00 96
20220125051135 50 90 0.0 0.0 0.00 0.00 0.00 96
20220125050226 51 90 0.0 0.0 0.00 0.00 0.00 95
20220125045923 52 90 0.0 1.0 0.00 0.00 0.00 94
20220125045621 52 90 0.0 1.0 0.00 0.00 0.00 92